Regional Weather Roundup
Issued by NWS

Home | Current Version | Previous Version | Graphics & Text | Print | Product List | Glossary On
Versions: 1 2 3 4 5 6 7 8 9 10 11 12 13 14 15 16 17 18 19 20 21 22 23 24 25 26 27 28 29 30 31 32 33 34 35 36 37 38 39 40 41 42 43 44 45 46 47 48 49 50
000
ASUS43 KLMK 271202
RWRKY
KENTUCKY REGIONAL WEATHER ROUNDUP
NATIONAL WEATHER SERVICE LOUISVILLE KY
700 AM EST SAT DEC 27 2014

NOTE "FAIR" INDICATES FEW OR NO CLOUDS BELOW 12,000 FEET
WITH NO SIGNIFICANT WEATHER AND/OR OBSTRUCTIONS TO VISIBILITY.

KYZ001>023-026-027-061>063-070>075-271300-
WESTERN AND SOUTH CENTRAL KENTUCKY

CITY           SKY/WX    TMP DP  RH WIND       PRES   REMARKS
PADUCAH        CLOUDY    47  45  93 S6        30.14S
HENDERSON      CLOUDY    45  41  87 S8        30.15S
OWENSBORO      LGT RAIN  46  43  90 S8        30.19R FOG
HOPKINSVILLE   CLOUDY    49  40  70 S6        30.18R
BOWLING GREEN  CLOUDY    49  37  63 S5        30.21R
GLASGOW        NOT AVBL
$$

KYZ024-025-028>034-038-045-046-053-271300-
NORTH CENTRAL KENTUCKY

CITY           SKY/WX    TMP DP  RH WIND       PRES   REMARKS
LOUISVILLE/SDF LGT RAIN  48  38  68 SE6       30.19R
LOUISVILLE/LOU CLOUDY    49  36  61 SE3       30.19S
FORT KNOX      LGT RAIN  46  39  78 SE3       30.18R
$$

KYZ035>037-039>044-047>052-055>060-089>105-271300-
NORTHEAST KENTUCKY

CITY           SKY/WX    TMP DP  RH WIND       PRES   REMARKS
LEXINGTON      CLOUDY    45  35  68 S7        30.22R
COVINGTON      CLOUDY    44  32  62 S7        30.20R
FRANKFORT      CLOUDY    45  35  68 SE5       30.21R
$$

KYZ054-064>069-076>088-106>120-271300-
SOUTHEAST KENTUCKY

CITY           SKY/WX    TMP DP  RH WIND       PRES   REMARKS
JACKSON        MOCLDY    45  25  45 SE3       30.23F
LONDON         CLOUDY    45  31  58 CALM      30.23S
SOMERSET       NOT AVBL
MIDDLESBORO    MOCLDY    41  36  83 CALM      30.28R
MONTICELLO     CLOUDY    44  38  79 CALM      30.26R
$$



USA.gov is the U.S. government's official web portal to all federal, state and local government web resources and services.